This demonstration page uses our WeatherBlox Daily Observations layout. Learn more.

Left ArrowRight Arrow

Hourly Observations for January 1, 2015

Temp ( °F °C ) Dew Point ( °F °C ) Humidity (%) Winds ( mph kmh ) Pressure ( in mb ) Visibility ( mi km ) Precip ( " mm )
12:53 am 00:53 Clear 36 2.2 30 -1.1 79 79 Calm 30.37 1028 10 16 0.00 0.00
1:53 am 01:53 Clear 34 1.1 29 -1.7 82 82 Calm 30.38 1029 10 16 0.00 0.00
2:53 am 02:53 Clear 34 1.1 26 -3.3 73 73 Calm 30.37 1029 10 16 0.00 0.00
3:53 am 03:53 Mostly Cloudy 32 0 26 -3.3 79 79 Calm 30.35 1028 10 16 0.00 0.00
4:53 am 04:53 Clear 32 0 27 -2.8 82 82 Calm 30.33 1027 8 13 0.00 0.00
5:53 am 05:53 Clear 31 -0.6 27 -2.8 85 85 Calm 30.33 1027 8 13 0.00 0.00
6:53 am 06:53 Clear 32 0 25 -3.9 75 75 Calm 30.35 1028 10 16 0.00 0.00
7:53 am 07:53 Sunny 31 -0.6 25 -3.9 79 79 Calm 30.36 1028 10 16 0.00 0.00
8:53 am 08:53 Sunny 33 0.6 26 -3.3 75 75 Calm 30.35 1028 10 16 0.00 0.00
9:53 am 09:53 Sunny 38 3.3 29 -1.7 70 70 SW 3 6 30.38 1029 10 16 0.00 0.00
10:53 am 10:53 Sunny 44 6.7 29 -1.7 55 55 SSW 3 6 30.37 1029 10 16 0.00 0.00
11:53 am 11:53 Sunny 48 8.9 23 -5 37 37 SSW 6 9 30.32 1027 10 16 0.00 0.00
12:53 pm 12:53 Mostly Cloudy 51 10.6 23 -5 33 33 VRB 3 6 30.30 1026 10 16 0.00 0.00
1:53 pm 13:53 Cloudy 53 11.7 24 -4.4 32 32 Calm 30.28 1025 10 16 0.00 0.00
2:53 pm 14:53 Mostly Cloudy 56 13.3 25 -3.9 30 30 Calm 30.26 1025 10 16 0.00 0.00
3:53 pm 15:53 Cloudy 55 12.8 25 -3.9 31 31 Calm 30.27 1025 10 16 0.00 0.00
4:53 pm 16:53 Cloudy 54 12.2 27 -2.8 35 35 N 3 6 30.27 1025 10 16 0.00 0.00
5:53 pm 17:53 Mostly Cloudy 52 11.1 31 -0.6 45 45 Calm 30.28 1025 10 16 0.00 0.00
6:53 pm 18:53 Clear 41 5 34 1 76 76 Calm 30.39 1029 10 16 0.00 0.00
7:53 pm 19:53 Cloudy with Light Rain 48 8.9 31 -0.6 52 52 NNW 5 7 30.34 1027 10 16 0.00 0.03
8:53 pm 20:53 Cloudy with Light Rain 45 7.2 35 1.7 68 68 Calm 30.35 1028 10 16 0.01 0.25
9:53 pm 21:53 Cloudy with Light Rain 44 6.7 37 2.8 76 76 Calm 30.37 1028 10 16 0.02 0.51
10:53 pm 22:53 Cloudy with Light Rain 43 6.1 37 2.8 80 80 Calm 30.34 1028 10 16 0.03 0.76
11:53 pm 23:53 Cloudy 42 5.6 40 4.4 92 92 Calm 30.32 1027 10 16 0.02 0.51

Powered by AerisWeather